| time (UTC) | temp C | wind direction | speed KPH | gust KPH | rain 1hr cm | rain 24hr cm | rain mn cm | humidity % | barometer mb |
| 20260905223130 | 13 | 0 | 0.0 | 0.0 | 0.00 | 0.00 | 0.00 | 8 | 1014.2 |
| 20260905222630 | 13 | 4 | 0.0 | 1.6 | 0.00 | 0.00 | 0.00 | 8 | 1014.0 |
| 20260905222130 | 13 | 351 | 0.0 | 1.6 | 0.00 | 0.00 | 0.00 | 8 | 1013.8 |
| 20260905221630 | 13 | 234 | 0.0 | 3.2 | 0.00 | 0.00 | 0.00 | 8 | 1014.0 |
| 20260905221129 | 13 | 0 | 0.0 | 0.0 | 0.00 | 0.00 | 0.00 | 8 | 1013.8 |
| 20260905220629 | 13 | 27 | 0.0 | 1.6 | 0.00 | 0.00 | 0.00 | 8 | 1014.1 |
| 20260905220128 | 13 | 0 | 0.0 | 0.0 | 0.00 | 0.00 | 0.00 | 8 | 1013.9 |
| 20260905215628 | 13 | 9 | 0.0 | 1.6 | 0.00 | 0.00 | 0.00 | 8 | 1013.9 |
| 20260905215128 | 13 | 0 | 0.0 | 0.0 | 0.00 | 0.00 | 0.00 | 8 | 1013.8 |
| 20260905214627 | 13 | 0 | 0.0 | 0.0 | 0.00 | 0.00 | 0.00 | 8 | 1013.8 |
| 20260905214127 | 13 | 330 | 0.0 | 1.6 | 0.00 | 0.00 | 0.00 | 8 | 1013.8 |
| 20260905213627 | 13 | 273 | 0.0 | 1.6 | 0.00 | 0.00 | 0.00 | 8 | 1013.7 |
| 20260905213126 | 13 | 0 | 0.0 | 0.0 | 0.00 | 0.00 | 0.00 | 8 | 1013.9 |
| 20260905212626 | 13 | 329 | 1.6 | 4.8 | 0.00 | 0.00 | 0.00 | 8 | 1013.6 |
| 20260905212126 | 14 | 0 | 0.0 | 0.0 | 0.00 | 0.00 | 0.00 | 8 | 1013.6 |
| 20260905211626 | 14 | 10 | 1.6 | 3.2 | 0.00 | 0.00 | 0.00 | 8 | 1013.6 |
| 20260905211125 | 14 | 30 | 0.0 | 1.6 | 0.00 | 0.00 | 0.00 | 8 | 1013.6 |
| 20260905210625 | 14 | 354 | 1.6 | 1.6 | 0.00 | 0.00 | 0.00 | 8 | 1013.4 |
| 20260905210125 | 14 | 0 | 0.0 | 0.0 | 0.00 | 0.00 | 0.00 | 8 | 1013.5 |
| 20260905205624 | 14 | 293 | 0.0 | 1.6 | 0.00 | 0.00 | 0.00 | 7 | 1013.4 |
| 20260905205124 | 14 | 0 | 0.0 | 0.0 | 0.00 | 0.00 | 0.00 | 7 | 1013.5 |
| 20260905204624 | 14 | 0 | 0.0 | 0.0 | 0.00 | 0.00 | 0.00 | 7 | 1013.2 |
| 20260905204123 | 14 | 0 | 0.0 | 0.0 | 0.00 | 0.00 | 0.00 | 7 | 1013.4 |
| 20260905203623 | 15 | 308 | 1.6 | 3.2 | 0.00 | 0.00 | 0.00 | 7 | 1013.4 |
| 20260905203123 | 15 | 336 | 1.6 | 1.6 | 0.00 | 0.00 | 0.00 | 7 | 1013.1 |
| 20260905202622 | 15 | 0 | 0.0 | 0.0 | 0.00 | 0.00 | 0.00 | 7 | 1013.1 |
| 20260905202122 | 15 | 0 | 0.0 | 0.0 | 0.00 | 0.00 | 0.00 | 7 | 1013.2 |
| 20260905201621 | 15 | 359 | 0.0 | 1.6 | 0.00 | 0.00 | 0.00 | 7 | 1013.4 |
| 20260905201121 | 15 | 354 | 0.0 | 1.6 | 0.00 | 0.00 | 0.00 | 7 | 1013.2 |
| 20260905200621 | 15 | 0 | 0.0 | 0.0 | 0.00 | 0.03 | 0.00 | 7 | 1013.1 |
| 20260905200121 | 15 | 340 | 0.0 | 1.6 | 0.00 | 0.05 | 0.00 | 7 | 1012.9 |
| 20260905195620 | 15 | 302 | 0.0 | 1.6 | 0.00 | 0.05 | 0.00 | 7 | 1013.2 |
| 20260905195120 | 15 | 291 | 1.6 | 3.2 | 0.00 | 0.05 | 0.00 | 7 | 1013.1 |
| 20260905194619 | 15 | 357 | 0.0 | 1.6 | 0.00 | 0.13 | 0.00 | 7 | 1013.0 |
| 20260905194119 | 15 | 335 | 0.0 | 1.6 | 0.00 | 0.18 | 0.00 | 7 | 1012.9 |
| 20260905193619 | 15 | 352 | 0.0 | 1.6 | 0.00 | 0.23 | 0.00 | 7 | 1012.9 |
| 20260905193118 | 15 | 0 | 0.0 | 0.0 | 0.00 | 0.23 | 0.00 | 7 | 1013.0 |
| 20260905192618 | 15 | 0 | 0.0 | 0.0 | 0.00 | 0.25 | 0.00 | 7 | 1013.2 |
| 20260905192118 | 15 | 347 | 0.0 | 1.6 | 0.00 | 0.28 | 0.00 | 7 | 1013.0 |
| 20260905191618 | 15 | 260 | 1.6 | 3.2 | 0.00 | 0.28 | 0.00 | 7 | 1012.7 |
| 20260905191117 | 15 | 0 | 0.0 | 0.0 | 0.00 | 0.28 | 0.00 | 8 | 1013.0 |
| 20260905190617 | 15 | 0 | 0.0 | 0.0 | 0.00 | 0.28 | 0.00 | 8 | 1013.2 |
| 20260905190117 | 15 | 199 | 0.0 | 1.6 | 0.00 | 0.28 | 0.00 | 8 | 1012.8 |
| 20260905185616 | 15 | 0 | 0.0 | 0.0 | 0.00 | 0.28 | 0.00 | 8 | 1013.0 |
| 20260905185116 | 15 | 258 | 0.0 | 1.6 | 0.00 | 0.28 | 0.00 | 8 | 1013.2 |
| 20260905184616 | 15 | 273 | 0.0 | 1.6 | 0.00 | 0.28 | 0.00 | 7 | 1012.9 |
| 20260905184115 | 15 | 252 | 0.0 | 1.6 | 0.00 | 0.28 | 0.00 | 7 | 1012.9 |
| 20260905183615 | 16 | 226 | 0.0 | 1.6 | 0.00 | 0.28 | 0.00 | 7 | 1013.1 |
| 20260905183115 | 16 | 261 | 0.0 | 1.6 | 0.00 | 0.28 | 0.00 | 7 | 1013.2 |
| 20260905182614 | 16 | 1 | 0.0 | 1.6 | 0.00 | 0.28 | 0.00 | 7 | 1013.1 |
| 20260905182114 | 16 | 323 | 0.0 | 1.6 | 0.00 | 0.28 | 0.00 | 7 | 1013.4 |
| 20260905181614 | 16 | 0 | 0.0 | 0.0 | 0.00 | 0.28 | 0.00 | 7 | 1013.3 |
| 20260905181113 | 16 | 11 | 0.0 | 1.6 | 0.00 | 0.28 | 0.00 | 7 | 1013.3 |
| 20260905180613 | 16 | 0 | 0.0 | 0.0 | 0.00 | 0.28 | 0.00 | 7 | 1013.1 |
| 20260905180113 | 16 | 355 | 0.0 | 1.6 | 0.00 | 0.28 | 0.00 | 7 | 1012.8 |
| 20260905175612 | 16 | 268 | 0.0 | 1.6 | 0.00 | 0.28 | 0.00 | 7 | 1012.8 |
| 20260905175112 | 16 | 0 | 0.0 | 0.0 | 0.00 | 0.28 | 0.00 | 7 | 1013.0 |
| 20260905174612 | 16 | 356 | 0.0 | 1.6 | 0.00 | 0.28 | 0.00 | 7 | 1012.9 |
| 20260905174111 | 16 | 354 | 0.0 | 1.6 | 0.00 | 0.28 | 0.00 | 7 | 1012.9 |
| 20260905173611 | 16 | 205 | 0.0 | 1.6 | 0.00 | 0.28 | 0.00 | 7 | 1012.7 |
| 20260905173111 | 16 | 353 | 1.6 | 3.2 | 0.00 | 0.28 | 0.00 | 7 | 1012.8 |
| 20260905172610 | 16 | 0 | 0.0 | 0.0 | 0.00 | 0.28 | 0.00 | 7 | 1012.8 |
| 20260905172110 | 16 | 0 | 0.0 | 0.0 | 0.00 | 0.28 | 0.00 | 7 | 1012.9 |
| 20260905171610 | 16 | 255 | 1.6 | 3.2 | 0.00 | 0.28 | 0.00 | 7 | 1013.0 |
| 20260905171109 | 16 | 356 | 0.0 | 1.6 | 0.00 | 0.28 | 0.00 | 7 | 1012.9 |
| 20260905170609 | 16 | 313 | 0.0 | 1.6 | 0.00 | 0.28 | 0.00 | 7 | 1013.0 |
| 20260905170108 | 16 | 356 | 1.6 | 3.2 | 0.00 | 0.28 | 0.00 | 6 | 1012.7 |
| 20260905165608 | 17 | 0 | 0.0 | 0.0 | 0.00 | 0.28 | 0.00 | 6 | 1012.8 |
| 20260905165108 | 17 | 355 | 0.0 | 1.6 | 0.00 | 0.28 | 0.00 | 6 | 1012.7 |
| 20260905164608 | 17 | 0 | 0.0 | 0.0 | 0.00 | 0.28 | 0.00 | 6 | 1013.0 |
| 20260905164107 | 17 | 343 | 1.6 | 3.2 | 0.00 | 0.28 | 0.00 | 6 | 1012.9 |
| 20260905163607 | 17 | 329 | 1.6 | 3.2 | 0.00 | 0.28 | 0.00 | 6 | 1012.7 |
| 20260905163106 | 17 | 238 | 0.0 | 1.6 | 0.00 | 0.28 | 0.00 | 6 | 1012.6 |
| 20260905162606 | 17 | 352 | 0.0 | 1.6 | 0.00 | 0.28 | 0.00 | 6 | 1012.4 |
| 20260905162106 | 17 | 333 | 1.6 | 3.2 | 0.00 | 0.28 | 0.00 | 6 | 1012.5 |
| 20260905161606 | 17 | 261 | 0.0 | 3.2 | 0.00 | 0.28 | 0.00 | 6 | 1012.4 |
| 20260905161105 | 17 | 357 | 0.0 | 1.6 | 0.00 | 0.28 | 0.00 | 6 | 1012.4 |
| 20260905160605 | 17 | 17 | 1.6 | 3.2 | 0.00 | 0.28 | 0.00 | 6 | 1012.4 |
| 20260905160105 | 17 | 0 | 0.0 | 0.0 | 0.00 | 0.28 | 0.00 | 6 | 1012.1 |
| 20260905155604 | 17 | 0 | 0.0 | 0.0 | 0.00 | 0.28 | 0.00 | 6 | 1012.1 |
| 20260905155104 | 17 | 337 | 1.6 | 3.2 | 0.00 | 0.28 | 0.00 | 6 | 1012.2 |
| 20260905154604 | 17 | 230 | 1.6 | 3.2 | 0.00 | 0.28 | 0.00 | 6 | 1012.2 |
| 20260905154103 | 17 | 18 | 1.6 | 1.6 | 0.00 | 0.28 | 0.00 | 6 | 1012.3 |
| 20260905153603 | 17 | 337 | 0.0 | 1.6 | 0.00 | 0.28 | 0.00 | 6 | 1012.5 |
| 20260905153102 | 17 | 222 | 3.2 | 3.2 | 0.00 | 0.28 | 0.00 | 6 | 1012.6 |
| 20260905152602 | 17 | 95 | 6.4 | 14.5 | 0.00 | 0.28 | 0.00 | 6 | 1012.5 |
| 20260905152102 | 18 | 14 | 0.0 | 1.6 | 0.00 | 0.28 | 0.00 | 6 | 1012.3 |
| 20260905151602 | 18 | 33 | 1.6 | 3.2 | 0.00 | 0.28 | 0.00 | 6 | 1012.2 |
| 20260905151101 | 18 | 328 | 1.6 | 3.2 | 0.00 | 0.28 | 0.00 | 5 | 1012.2 |
| 20260905150601 | 18 | 218 | 3.2 | 3.2 | 0.00 | 0.28 | 0.00 | 5 | 1012.1 |
| 20260905150100 | 18 | 246 | 3.2 | 4.8 | 0.00 | 0.28 | 0.00 | 5 | 1012.1 |
| 20260905145600 | 18 | 342 | 0.0 | 1.6 | 0.00 | 0.28 | 0.00 | 6 | 1012.1 |
| 20260905145100 | 18 | 332 | 3.2 | 6.4 | 0.00 | 0.28 | 0.00 | 5 | 1011.9 |
| 20260905144559 | 18 | 322 | 0.0 | 1.6 | 0.00 | 0.28 | 0.00 | 5 | 1012.0 |
| 20260905144059 | 18 | 3 | 1.6 | 3.2 | 0.00 | 0.28 | 0.00 | 5 | 1011.9 |
| 20260905143559 | 19 | 323 | 0.0 | 1.6 | 0.00 | 0.28 | 0.00 | 5 | 1011.5 |
| 20260905143058 | 19 | 2 | 0.0 | 1.6 | 0.00 | 0.28 | 0.00 | 5 | 1011.5 |
| 20260905142558 | 19 | 338 | 1.6 | 3.2 | 0.00 | 0.28 | 0.00 | 5 | 1011.5 |
| 20260905142058 | 19 | 318 | 0.0 | 1.6 | 0.00 | 0.28 | 0.00 | 5 | 1011.3 |
| 20260905141558 | 19 | 249 | 3.2 | 3.2 | 0.00 | 0.28 | 0.00 | 5 | 1011.5 |
| 20260905141057 | 20 | 266 | 3.2 | 3.2 | 0.00 | 0.28 | 0.00 | 5 | 1011.5 |
| 20260905140557 | 19 | 212 | 0.0 | 1.6 | 0.00 | 0.28 | 0.00 | 5 | 1011.2 |
| 20260905140057 | 20 | 12 | 1.6 | 3.2 | 0.00 | 0.28 | 0.00 | 5 | 1011.5 |
| 20260905135556 | 20 | 96 | 1.6 | 4.8 | 0.00 | 0.28 | 0.00 | 5 | 1011.3 |
| 20260905135056 | 20 | 17 | 1.6 | 3.2 | 0.00 | 0.28 | 0.00 | 5 | 1011.0 |
| 20260905134556 | 20 | 0 | 0.0 | 0.0 | 0.00 | 0.28 | 0.00 | 5 | 1011.1 |
| 20260905134055 | 20 | 5 | 0.0 | 1.6 | 0.00 | 0.28 | 0.00 | 5 | 1011.2 |
| 20260905133555 | 19 | 26 | 0.0 | 1.6 | 0.00 | 0.28 | 0.00 | 5 | 1011.2 |
| 20260905133055 | 19 | 0 | 0.0 | 0.0 | 0.00 | 0.28 | 0.00 | 5 | 1011.1 |
| 20260905132554 | 19 | 5 | 0.0 | 3.2 | 0.00 | 0.28 | 0.00 | 5 | 1011.3 |
| 20260905132054 | 19 | 237 | 0.0 | 3.2 | 0.00 | 0.28 | 0.00 | 5 | 1011.3 |
| 20260905131553 | 19 | 0 | 0.0 | 0.0 | 0.00 | 0.28 | 0.00 | 5 | 1011.4 |
| 20260905131053 | 19 | 357 | 0.0 | 1.6 | 0.00 | 0.28 | 0.00 | 5 | 1011.6 |
| 20260905130553 | 20 | 13 | 3.2 | 4.8 | 0.00 | 0.28 | 0.00 | 5 | 1011.6 |
| 20260905130053 | 20 | 7 | 1.6 | 3.2 | 0.00 | 0.28 | 0.00 | 5 | 1011.2 |
| 20260905125552 | 20 | 358 | 0.0 | 1.6 | 0.00 | 0.28 | 0.00 | 5 | 1011.1 |
| 20260905125052 | 20 | 10 | 1.6 | 1.6 | 0.00 | 0.28 | 0.00 | 5 | 1011.1 |
| 20260905124552 | 20 | 345 | 3.2 | 3.2 | 0.00 | 0.28 | 0.00 | 5 | 1011.2 |
| 20260905124051 | 20 | 7 | 3.2 | 3.2 | 0.00 | 0.28 | 0.00 | 5 | 1011.1 |
| 20260905123551 | 20 | 0 | 0.0 | 0.0 | 0.00 | 0.28 | 0.00 | 5 | 1011.3 |
| 20260905123051 | 20 | 357 | 1.6 | 3.2 | 0.00 | 0.28 | 0.00 | 5 | 1011.2 |
| 20260905122550 | 21 | 141 | 1.6 | 3.2 | 0.00 | 0.28 | 0.00 | 5 | 1011.1 |
| 20260905122050 | 20 | 325 | 0.0 | 1.6 | 0.00 | 0.28 | 0.00 | 5 | 1011.2 |
| 20260905121550 | 20 | 354 | 1.6 | 1.6 | 0.00 | 0.28 | 0.00 | 5 | 1011.3 |
| 20260905121049 | 20 | 7 | 0.0 | 1.6 | 0.00 | 0.28 | 0.00 | 5 | 1011.2 |
| 20260905120549 | 20 | 333 | 1.6 | 4.8 | 0.00 | 0.28 | 0.00 | 5 | 1011.6 |
| 20260905120049 | 20 | 261 | 1.6 | 3.2 | 0.00 | 0.28 | 0.00 | 5 | 1010.9 |
| 20260905115548 | 20 | 329 | 1.6 | 4.8 | 0.00 | 0.28 | 0.00 | 5 | 1011.3 |
| 20260905115048 | 20 | 185 | 4.8 | 8.0 | 0.00 | 0.28 | 0.00 | 5 | 1011.4 |
| 20260905114548 | 20 | 336 | 3.2 | 6.4 | 0.00 | 0.28 | 0.00 | 5 | 1011.5 |
| 20260905114047 | 20 | 274 | 1.6 | 3.2 | 0.00 | 0.28 | 0.00 | 5 | 1011.4 |
| 20260905113547 | 20 | 187 | 3.2 | 4.8 | 0.00 | 0.28 | 0.00 | 5 | 1011.4 |
| 20260905113047 | 20 | 219 | 3.2 | 4.8 | 0.00 | 0.28 | 0.00 | 5 | 1011.0 |
| 20260905112546 | 21 | 85 | 6.4 | 12.9 | 0.00 | 0.28 | 0.00 | 5 | 1010.8 |
| 20260905112046 | 20 | 261 | 1.6 | 3.2 | 0.00 | 0.28 | 0.00 | 5 | 1010.8 |
| 20260905111546 | 20 | 214 | 1.6 | 4.8 | 0.00 | 0.28 | 0.00 | 5 | 1011.0 |
| 20260905111045 | 20 | 301 | 1.6 | 4.8 | 0.00 | 0.28 | 0.00 | 5 | 1011.0 |
| 20260905110545 | 20 | 5 | 0.0 | 3.2 | 0.00 | 0.28 | 0.00 | 5 | 1010.7 |
| 20260905110045 | 20 | 288 | 0.0 | 1.6 | 0.00 | 0.28 | 0.00 | 5 | 1010.8 |
| 20260905105544 | 20 | 342 | 0.0 | 1.6 | 0.00 | 0.28 | 0.00 | 5 | 1010.8 |
| 20260905105044 | 20 | 9 | 0.0 | 1.6 | 0.00 | 0.28 | 0.00 | 5 | 1010.8 |
| 20260905104544 | 20 | 352 | 1.6 | 1.6 | 0.00 | 0.28 | 0.00 | 5 | 1010.6 |
| 20260905104043 | 20 | 287 | 0.0 | 3.2 | 0.00 | 0.28 | 0.00 | 6 | 1011.1 |
| 20260905103543 | 20 | 335 | 3.2 | 6.4 | 0.00 | 0.28 | 0.00 | 6 | 1010.6 |
| 20260905103043 | 19 | 0 | 0.0 | 0.0 | 0.00 | 0.28 | 0.00 | 6 | 1010.9 |
| 20260905102542 | 19 | 220 | 3.2 | 3.2 | 0.00 | 0.28 | 0.00 | 6 | 1010.7 |
| 20260905102042 | 18 | 341 | 1.6 | 3.2 | 0.00 | 0.28 | 0.00 | 6 | 1010.5 |
| 20260905101542 | 18 | 3 | 0.0 | 1.6 | 0.00 | 0.28 | 0.00 | 6 | 1010.9 |
| 20260905101041 | 18 | 312 | 0.0 | 1.6 | 0.00 | 0.28 | 0.00 | 6 | 1011.0 |
| 20260905100541 | 18 | 287 | 0.0 | 1.6 | 0.00 | 0.28 | 0.00 | 6 | 1010.7 |
| 20260905100041 | 18 | 57 | 0.0 | 1.6 | 0.00 | 0.28 | 0.00 | 6 | 1010.7 |
| 20260905095540 | 18 | 0 | 0.0 | 0.0 | 0.00 | 0.28 | 0.00 | 6 | 1010.6 |
| 20260905095040 | 17 | 0 | 0.0 | 0.0 | 0.00 | 0.28 | 0.00 | 6 | 1010.6 |
| 20260905094540 | 18 | 231 | 3.2 | 4.8 | 0.00 | 0.28 | 0.00 | 6 | 1010.7 |
| 20260905094039 | 18 | 8 | 0.0 | 1.6 | 0.00 | 0.28 | 0.00 | 6 | 1010.5 |
| 20260905093539 | 18 | 11 | 0.0 | 1.6 | 0.00 | 0.28 | 0.00 | 6 | 1010.6 |
| 20260905093039 | 19 | 338 | 0.0 | 1.6 | 0.00 | 0.28 | 0.00 | 6 | 1010.4 |
| 20260905092538 | 20 | 336 | 0.0 | 1.6 | 0.00 | 0.28 | 0.00 | 6 | 1010.5 |
| 20260905092038 | 19 | 356 | 0.0 | 1.6 | 0.00 | 0.28 | 0.00 | 6 | 1010.4 |
| 20260905091538 | 19 | 238 | 1.6 | 3.2 | 0.00 | 0.28 | 0.00 | 6 | 1010.3 |
| 20260905091037 | 19 | 329 | 1.6 | 1.6 | 0.00 | 0.28 | 0.00 | 6 | 1010.3 |
| 20260905090537 | 18 | 356 | 0.0 | 3.2 | 0.00 | 0.28 | 0.00 | 6 | 1010.3 |
| 20260905090037 | 18 | 3 | 0.0 | 1.6 | 0.00 | 0.28 | 0.00 | 6 | 1010.4 |
| 20260905085536 | 18 | 329 | 3.2 | 3.2 | 0.00 | 0.28 | 0.00 | 6 | 1010.4 |
| 20260905085036 | 18 | 185 | 1.6 | 1.6 | 0.00 | 0.28 | 0.00 | 6 | 1010.2 |
| 20260905084536 | 18 | 336 | 1.6 | 3.2 | 0.00 | 0.28 | 0.00 | 6 | 1010.1 |
| 20260905084035 | 18 | 119 | 0.0 | 1.6 | 0.00 | 0.28 | 0.00 | 6 | 1010.1 |
| 20260905083535 | 18 | 327 | 3.2 | 6.4 | 0.00 | 0.28 | 0.00 | 7 | 1010.0 |
| 20260905083035 | 18 | 352 | 0.0 | 1.6 | 0.00 | 0.28 | 0.00 | 7 | 1010.2 |
| 20260905082534 | 18 | 271 | 1.6 | 3.2 | 0.00 | 0.28 | 0.00 | 7 | 1009.8 |
| 20260905082034 | 18 | 230 | 3.2 | 4.8 | 0.00 | 0.28 | 0.00 | 7 | 1010.1 |
| 20260905081534 | 18 | 354 | 0.0 | 3.2 | 0.00 | 0.28 | 0.00 | 7 | 1010.0 |
| 20260905081033 | 17 | 319 | 0.0 | 1.6 | 0.00 | 0.28 | 0.00 | 7 | 1010.0 |
| 20260905080533 | 17 | 328 | 1.6 | 3.2 | 0.00 | 0.28 | 0.00 | 7 | 1010.2 |
| 20260905080033 | 17 | 36 | 3.2 | 3.2 | 0.00 | 0.28 | 0.00 | 7 | 1010.1 |
| 20260905075532 | 17 | 298 | 1.6 | 3.2 | 0.00 | 0.28 | 0.00 | 7 | 1010.2 |
| 20260905075032 | 17 | 0 | 0.0 | 0.0 | 0.00 | 0.28 | 0.00 | 7 | 1010.0 |
| 20260905074532 | 17 | 346 | 0.0 | 1.6 | 0.00 | 0.28 | 0.00 | 7 | 1010.1 |
| 20260905074031 | 17 | 11 | 1.6 | 3.2 | 0.00 | 0.28 | 0.00 | 7 | 1009.9 |
| 20260905073531 | 17 | 18 | 0.0 | 1.6 | 0.00 | 0.28 | 0.00 | 7 | 1010.0 |
| 20260905073031 | 17 | 332 | 0.0 | 1.6 | 0.00 | 0.28 | 0.00 | 7 | 1009.9 |
| 20260905072530 | 17 | 0 | 0.0 | 0.0 | 0.00 | 0.28 | 0.00 | 7 | 1010.2 |
| 20260905072030 | 17 | 0 | 0.0 | 0.0 | 0.00 | 0.28 | 0.00 | 7 | 1009.8 |
| 20260905071530 | 16 | 337 | 0.0 | 1.6 | 0.00 | 0.28 | 0.00 | 7 | 1009.8 |
| 20260905071029 | 16 | 324 | 4.8 | 6.4 | 0.00 | 0.28 | 0.00 | 7 | 1009.9 |
| 20260905070529 | 16 | 284 | 0.0 | 3.2 | 0.00 | 0.28 | 0.00 | 7 | 1009.8 |
| 20260905070029 | 16 | 0 | 0.0 | 0.0 | 0.00 | 0.28 | 0.00 | 7 | 1009.7 |
| 20260905065528 | 16 | 327 | 0.0 | 1.6 | 0.00 | 0.28 | 0.00 | 7 | 1009.5 |
| 20260905065028 | 16 | 0 | 0.0 | 0.0 | 0.00 | 0.28 | 0.00 | 7 | 1009.4 |
| 20260905064528 | 16 | 4 | 0.0 | 1.6 | 0.00 | 0.28 | 0.00 | 7 | 1009.3 |
| 20260905064027 | 16 | 43 | 0.0 | 1.6 | 0.00 | 0.28 | 0.00 | 7 | 1009.2 |
| 20260905063527 | 16 | 351 | 0.0 | 1.6 | 0.00 | 0.28 | 0.00 | 7 | 1009.4 |
| 20260905063027 | 16 | 0 | 0.0 | 0.0 | 0.00 | 0.28 | 0.00 | 7 | 1009.4 |
| 20260905062526 | 16 | 0 | 0.0 | 0.0 | 0.00 | 0.28 | 0.00 | 7 | 1009.3 |
| 20260905062026 | 16 | 349 | 0.0 | 1.6 | 0.00 | 0.28 | 0.00 | 7 | 1009.0 |
| 20260905061526 | 16 | 0 | 0.0 | 0.0 | 0.00 | 0.28 | 0.00 | 7 | 1008.7 |
| 20260905061025 | 16 | 2 | 0.0 | 1.6 | 0.00 | 0.28 | 0.00 | 7 | 1009.2 |
| 20260905060525 | 16 | 18 | 4.8 | 6.4 | 0.00 | 0.28 | 0.00 | 7 | 1009.0 |
| 20260905060025 | 16 | 0 | 0.0 | 0.0 | 0.00 | 0.28 | 0.00 | 7 | 1009.0 |
| 20260905055524 | 15 | 358 | 0.0 | 1.6 | 0.00 | 0.28 | 0.00 | 7 | 1008.9 |
| 20260905055024 | 15 | 0 | 0.0 | 0.0 | 0.00 | 0.28 | 0.00 | 7 | 1008.8 |
| 20260905054524 | 15 | 354 | 0.0 | 3.2 | 0.00 | 0.28 | 0.00 | 7 | 1008.8 |
| 20260905054023 | 15 | 41 | 3.2 | 8.0 | 0.00 | 0.28 | 0.00 | 7 | 1008.7 |
| 20260905053523 | 15 | 0 | 0.0 | 0.0 | 0.00 | 0.33 | 0.00 | 7 | 1008.6 |
| 20260905053023 | 15 | 332 | 0.0 | 3.2 | 0.00 | 0.33 | 0.00 | 7 | 1008.8 |
| 20260905052522 | 15 | 0 | 0.0 | 0.0 | 0.00 | 0.33 | 0.00 | 8 | 1008.9 |
| 20260905052022 | 15 | 346 | 0.0 | 1.6 | 0.00 | 0.33 | 0.00 | 8 | 1008.5 |
| 20260905051522 | 15 | 0 | 0.0 | 0.0 | 0.00 | 0.33 | 0.00 | 8 | 1008.4 |
| 20260905051021 | 15 | 188 | 0.0 | 1.6 | 0.00 | 0.33 | 0.00 | 8 | 1008.7 |
| 20260905050521 | 15 | 231 | 0.0 | 3.2 | 0.00 | 0.33 | 0.00 | 8 | 1008.6 |
| 20260905050021 | 15 | 315 | 0.0 | 3.2 | 0.00 | 0.33 | 0.00 | 8 | 1008.2 |
| 20260905045520 | 15 | 0 | 0.0 | 0.0 | 0.00 | 0.33 | 0.00 | 8 | 1008.1 |
| 20260905045020 | 15 | 266 | 0.0 | 1.6 | 0.00 | 0.33 | 0.00 | 8 | 1008.0 |
| 20260905044520 | 15 | 204 | 0.0 | 1.6 | 0.00 | 0.33 | 0.00 | 8 | 1008.1 |
| 20260905044019 | 15 | 350 | 0.0 | 1.6 | 0.00 | 0.33 | 0.00 | 8 | 1007.7 |
| 20260905043519 | 15 | 0 | 0.0 | 0.0 | 0.00 | 0.33 | 0.00 | 8 | 1007.9 |
| 20260905043019 | 15 | 0 | 0.0 | 0.0 | 0.00 | 0.33 | 0.00 | 8 | 1008.1 |
| 20260905042518 | 15 | 0 | 0.0 | 0.0 | 0.00 | 0.33 | 0.00 | 8 | 1007.7 |
| 20260905042018 | 15 | 0 | 0.0 | 0.0 | 0.00 | 0.33 | 0.00 | 8 | 1007.6 |
| 20260905041518 | 15 | 265 | 1.6 | 3.2 | 0.00 | 0.33 | 0.00 | 8 | 1007.5 |
| 20260905041017 | 15 | 0 | 0.0 | 0.0 | 0.00 | 0.33 | 0.00 | 8 | 1007.4 |
| 20260905040517 | 15 | 0 | 0.0 | 0.0 | 0.00 | 0.33 | 0.00 | 9 | 1007.3 |
| 20260905040017 | 15 | 294 | 0.0 | 1.6 | 0.00 | 0.33 | 0.00 | 9 | 1007.3 |
| 20260905035516 | 15 | 0 | 0.0 | 0.0 | 0.00 | 0.33 | 0.00 | 9 | 1007.3 |
| 20260905035016 | 15 | 0 | 0.0 | 0.0 | 0.00 | 0.33 | 0.00 | 9 | 1007.2 |
| 20260905034516 | 15 | 0 | 0.0 | 0.0 | 0.00 | 0.33 | 0.00 | 9 | 1006.8 |
| 20260905034015 | 15 | 0 | 0.0 | 0.0 | 0.00 | 0.33 | 0.00 | 9 | 1006.9 |
| 20260905033515 | 15 | 0 | 0.0 | 0.0 | 0.00 | 0.33 | 0.00 | 9 | 1006.5 |
| 20260905033015 | 15 | 0 | 0.0 | 0.0 | 0.00 | 0.33 | 0.00 | 8 | 1006.5 |
| 20260905032514 | 16 | 225 | 1.6 | 3.2 | 0.00 | 0.33 | 0.00 | 8 | 1006.4 |
| 20260905032014 | 16 | 0 | 0.0 | 0.0 | 0.00 | 0.33 | 0.00 | 8 | 1006.2 |
| 20260905031514 | 16 | 240 | 6.4 | 8.0 | 0.00 | 0.33 | 0.00 | 8 | 1005.6 |
| 20260905031013 | 16 | 0 | 0.0 | 0.0 | 0.00 | 0.33 | 0.00 | 8 | 1005.8 |
| 20260905030513 | 16 | 267 | 3.2 | 3.2 | 0.00 | 0.33 | 0.00 | 8 | 1005.9 |
| 20260905030013 | 16 | 0 | 0.0 | 0.0 | 0.00 | 0.33 | 0.00 | 8 | 1006.1 |
| 20260905025512 | 16 | 210 | 0.0 | 3.2 | 0.00 | 0.33 | 0.00 | 8 | 1005.9 |
| 20260905025012 | 16 | 226 | 4.8 | 6.4 | 0.00 | 0.33 | 0.00 | 8 | 1005.9 |
| 20260905024512 | 16 | 310 | 0.0 | 1.6 | 0.00 | 0.33 | 0.00 | 8 | 1005.6 |
| 20260905024011 | 16 | 0 | 0.0 | 0.0 | 0.00 | 0.33 | 0.00 | 8 | 1005.9 |
| 20260905023511 | 16 | 147 | 0.0 | 1.6 | 0.00 | 0.33 | 0.00 | 8 | 1005.8 |
| 20260905023011 | 16 | 0 | 0.0 | 0.0 | 0.00 | 0.33 | 0.00 | 8 | 1005.7 |
| 20260905022510 | 16 | 0 | 0.0 | 0.0 | 0.00 | 0.33 | 0.00 | 8 | 1006.0 |
| 20260905022010 | 17 | 0 | 0.0 | 0.0 | 0.00 | 0.33 | 0.00 | 8 | 1005.8 |
| 20260905021510 | 17 | 352 | 0.0 | 1.6 | 0.00 | 0.33 | 0.00 | 8 | 1005.8 |
| 20260905021010 | 17 | 0 | 0.0 | 0.0 | 0.00 | 0.33 | 0.00 | 8 | 1005.5 |
| 20260905020509 | 17 | 346 | 1.6 | 3.2 | 0.00 | 0.33 | 0.00 | 8 | 1005.6 |
| 20260905020009 | 17 | 354 | 1.6 | 3.2 | 0.00 | 0.33 | 0.00 | 8 | 1005.6 |
| 20260905015508 | 17 | 2 | 0.0 | 1.6 | 0.00 | 0.33 | 0.00 | 8 | 1005.2 |
| 20260905015008 | 17 | 258 | 3.2 | 3.2 | 0.00 | 0.33 | 0.00 | 8 | 1005.4 |
| 20260905014508 | 17 | 169 | 6.4 | 12.9 | 0.00 | 0.33 | 0.00 | 8 | 1005.2 |
| 20260905014007 | 17 | 6 | 0.0 | 1.6 | 0.00 | 0.33 | 0.00 | 8 | 1005.3 |
| 20260905013507 | 17 | 0 | 0.0 | 0.0 | 0.00 | 0.33 | 0.00 | 8 | 1005.2 |
| 20260905013007 | 17 | 0 | 0.0 | 0.0 | 0.00 | 0.33 | 0.00 | 8 | 1005.1 |
| 20260905012507 | 17 | 229 | 1.6 | 4.8 | 0.00 | 0.33 | 0.00 | 8 | 1005.2 |
| 20260905012006 | 17 | 343 | 0.0 | 1.6 | 0.00 | 0.33 | 0.00 | 8 | 1005.0 |
| 20260905011506 | 17 | 262 | 0.0 | 3.2 | 0.00 | 0.33 | 0.00 | 8 | 1005.3 |
| 20260905011006 | 17 | 256 | 1.6 | 3.2 | 0.00 | 0.33 | 0.00 | 8 | 1004.9 |
| 20260905010005 | 17 | 290 | 3.2 | 4.8 | 0.00 | 0.33 | 0.00 | 8 | 1004.9 |
| 20260905005505 | 17 | 8 | 0.0 | 1.6 | 0.00 | 0.33 | 0.00 | 8 | 1004.7 |
| 20260905005004 | 17 | 342 | 1.6 | 3.2 | 0.00 | 0.33 | 0.00 | 8 | 1004.7 |
| 20260905004504 | 17 | 293 | 1.6 | 1.6 | 0.00 | 0.33 | 0.00 | 9 | 1004.6 |
| 20260905004004 | 17 | 57 | 0.0 | 1.6 | 0.00 | 0.33 | 0.00 | 9 | 1004.3 |
| 20260905003503 | 17 | 359 | 1.6 | 4.8 | 0.00 | 0.33 | 0.00 | 9 | 1004.6 |
| 20260905003003 | 17 | 245 | 1.6 | 1.6 | 0.00 | 0.33 | 0.00 | 9 | 1004.6 |
| 20260905002502 | 17 | 97 | 1.6 | 4.8 | 0.00 | 0.33 | 0.00 | 9 | 1004.2 |
| 20260905002002 | 17 | 0 | 0.0 | 0.0 | 0.00 | 0.33 | 0.00 | 9 | 1004.4 |
| 20260905001502 | 17 | 324 | 0.0 | 1.6 | 0.00 | 0.33 | 0.00 | 9 | 1004.2 |
| 20260905001002 | 17 | 15 | 0.0 | 1.6 | 0.00 | 0.33 | 0.00 | 9 | 1004.2 |
| 20260905000501 | 17 | 5 | 0.0 | 3.2 | 0.00 | 0.33 | 0.00 | 9 | 1004.4 |
| 20260905000001 | 17 | 279 | 1.6 | 3.2 | 0.00 | 0.33 | 0.00 | 9 | 1004.5 |
| 20260904235500 | 17 | 163 | 0.0 | 1.6 | 0.00 | 0.33 | 0.00 | 9 | 1004.2 |
| 20260904235000 | 17 | 1 | 0.0 | 1.6 | 0.00 | 0.33 | 0.00 | 9 | 1004.4 |
| 20260904234500 | 17 | 354 | 0.0 | 1.6 | 0.00 | 0.33 | 0.00 | 9 | 1004.4 |
| 20260904233959 | 17 | 12 | 0.0 | 1.6 | 0.00 | 0.33 | 0.00 | 9 | 1004.2 |
| 20260904233459 | 17 | 11 | 0.0 | 4.8 | 0.00 | 0.33 | 0.00 | 9 | 1004.2 |
| 20260904232959 | 17 | 0 | 0.0 | 0.0 | 0.00 | 0.33 | 0.00 | 9 | 1004.2 |
| 20260904232458 | 17 | 0 | 0.0 | 0.0 | 0.00 | 0.33 | 0.00 | 9 | 1004.2 |
| 20260904231958 | 17 | 341 | 0.0 | 1.6 | 0.00 | 0.33 | 0.00 | 9 | 1004.3 |
| 20260904231458 | 17 | 348 | 0.0 | 1.6 | 0.00 | 0.33 | 0.00 | 9 | 1004.4 |
| 20260904230957 | 17 | 0 | 0.0 | 0.0 | 0.00 | 0.33 | 0.00 | 9 | 1004.6 |
| 20260904230457 | 17 | 348 | 0.0 | 1.6 | 0.00 | 0.33 | 0.00 | 9 | 1004.6 |
| 20260904225957 | 17 | 321 | 0.0 | 1.6 | 0.00 | 0.33 | 0.00 | 9 | 1004.5 |
| 20260904225456 | 17 | 0 | 0.0 | 0.0 | 0.00 | 0.38 | 0.00 | 9 | 1004.2 |
| 20260904224956 | 17 | 0 | 0.0 | 0.0 | 0.00 | 0.38 | 0.00 | 9 | 1003.9 |
| 20260904224456 | 17 | 0 | 0.0 | 0.0 | 0.00 | 0.38 | 0.00 | 9 | 1004.1 |
| 20260904223955 | 17 | 0 | 0.0 | 0.0 | 0.00 | 0.38 | 0.00 | 9 | 1004.3 |
| 20260904223455 | 17 | 0 | 0.0 | 0.0 | 0.00 | 0.38 | 0.00 | 9 | 1004.1 |